METEOR 2-6 DEB

Satellite information

Favourite Embed

Satellite Type and Status

DEBRISIN ORBIT

Key statistics

Satellite METEOR 2-6 DEB at a glance.

Uptime

16433

Days in orbit

Revolutions

≈ 15.0

Per day

Orbit

LEO

Low Earth Orbit

Inclination

81.2

Latest

Satellite identification and parameters

Extended collection of information and parameters for METEOR 2-6 DEB.

Object identification

Identified? True

Debris? True

Object name: METEOR 2-6 DEB

International designator: 1980-073P

Object number (NORAD): 38837

Object ID (CCSDS): 38837

Country: COMMONWEALTH OF INDEPENDENT STATES (CIS)

Current information (Y/N): Y

RCS size: SMALL

Orbital parameters

Period: 95.719 minutes

Inclination: 81.177 deg

SMA: 6931.471 km

Apoapsis: 563.131 km

Periapsis: 543.54 km

RAAN: 171.6327 deg

Eccentricy: 0.00141321

Argument of periapsis: 98.4101 deg

Mean anomaly: 20.4491 deg

Mean motion: 15.04404705 rev/day

Mean motion (dot): 0.0018111 rev/day2

B* drag term: 0.012633124 1/REarth

Two-line elements (TLE)

Creation date: Sept. 2, 2025, 11:42 p.m.

Reference frame: TEME

Reference center: EARTH

Epoch: Sept. 2, 2025, 1:16 p.m. UTC

TLE line 0: 0 METEOR 2-6 DEB

TLE line 1: 1 38837U 80073P 25245.55285017 .00181110 00000-0 12633-1 0 9996

TLE line 2: 2 38837 81.1770 171.6327 0014132 98.4101 20.4491 15.04404705640095

Live tracking on map

Real-time ground track for satellite METEOR 2-6 DEB.

In-orbit conjunctions

A list of the most updated potential collisions computed for object METEOR 2-6 DEB.

Target Orbit TCA Probability of collision Miss distance Type
MACSAT 2 (M 2) LEO 2025-01-08 20:47:45 0.002286949 32.0 (m) PAYLOAD
FENGYUN 1C DEB SSO 2024-07-03 07:51:29 0.0001698743 108.0 (m) DEBRIS

Associated space launch

Second generation soviet meteorological satellite

METEOR 2-6 DEB was lifted into orbit during the mission ‘Vostok 8A92M | Meteor-2 6’, on board a Vostok 8A92M space rocket.

The launch took place on Sept. 9, 1980, 11 a.m. from 43/3 (43L).

For more information about the launch, click the button.

Launch to space Vostok 8A92M | Meteor-2 6
Vostok 8A92M | Meteor-2 6

Agency: N/A

Status: Launch Successful

Launch date: Sept. 9, 1980, 11 a.m. UTC

Rocket: Vostok 8A92M

Launch pad: 43/3 (43L)

Location: Plesetsk Cosmodrome, Russian Federation

...

Latest news about this satellite

There are no fresh news available about this satellite. Check back as we update our databases every day.


Newsletter sign-up

Weekly statistics, charts and insights to help you stay on top of the space industry.